Location: Akgöl Batakl???
(38.9482°N, 31.8837°E)
Time: 10:46:38
(UTC+00:00)

Meteor 2-4 Rocket - Pass Details

Date: 08 May 2026
Orbit: 799 x 906 km, 81.2° (Epoch: 8 June)

Event Time Altitude Azimuth Distance (km) Brightness Sun altitude
Exits shadow 22:39:12 47° 36° (NE) 1,060 4.4 -32.5°
Drops below altitude 10° 22:43:10 10° 15° (NNE) 2,407 6.9 -32.3°
Sets 22:45:36 0° 13° (NNE) 3,356 7.9 -32.2°
